| time (UTC) | temp C | wind direction | speed KPH | gust KPH | rain 1hr cm | rain 24hr cm | rain mn cm | humidity % | barometer mb |
| 20260505140528 | 8 | 266 | 8.0 | 17.7 | 0.00 | 0.00 | 0.00 | 46 | 1008.9 |
| 20260505125030 | 7 | 268 | 4.8 | 12.9 | 0.00 | 0.00 | 0.00 | 49 | 1008.9 |
| 20260505124603 | 7 | 280 | 3.2 | 17.7 | 0.00 | 0.00 | 0.00 | 50 | 1008.9 |
| 20260505124028 | 7 | 258 | 4.8 | 17.7 | 0.00 | 0.00 | 0.00 | 51 | 1008.8 |
| 20260505123528 | 7 | 278 | 3.2 | 9.7 | 0.00 | 0.00 | 0.00 | 51 | 1008.7 |
| 20260505123059 | 7 | 259 | 4.8 | 11.3 | 0.00 | 0.00 | 0.00 | 51 | 1008.9 |
| 20260505122531 | 7 | 264 | 3.2 | 12.9 | 0.00 | 0.00 | 0.00 | 52 | 1008.9 |
| 20260505122031 | 7 | 274 | 1.6 | 12.9 | 0.00 | 0.00 | 0.00 | 53 | 1008.8 |
| 20260505121553 | 6 | 265 | 1.6 | 6.4 | 0.00 | 0.00 | 0.00 | 54 | 1008.6 |
| 20260505121031 | 6 | 262 | 0.0 | 4.8 | 0.00 | 0.00 | 0.00 | 60 | 1008.6 |
| 20260505120530 | 6 | 215 | 1.6 | 4.8 | 0.00 | 0.00 | 0.00 | 61 | 1008.6 |
| 20260505120053 | 6 | 0 | 0.0 | 3.2 | 0.00 | 0.00 | 0.00 | 62 | 1008.5 |
| 20260505115533 | 6 | 0 | 0.0 | 3.2 | 0.00 | 0.00 | 0.00 | 62 | 1008.2 |
| 20260505115028 | 5 | 0 | 0.0 | 1.6 | 0.00 | 0.00 | 0.00 | 62 | 1007.8 |
| 20260505114548 | 5 | 0 | 0.0 | 1.6 | 0.00 | 0.00 | 0.00 | 62 | 1007.5 |
| 20260505114029 | 5 | 0 | 0.0 | 1.6 | 0.00 | 0.00 | 0.00 | 62 | 1007.4 |
| 20260505113530 | 5 | 0 | 0.0 | 0.0 | 0.00 | 0.00 | 0.00 | 62 | 1007.2 |
| 20260505113046 | 5 | 0 | 0.0 | 0.0 | 0.00 | 0.00 | 0.00 | 63 | 1007.1 |
| 20260505112528 | 5 | 0 | 0.0 | 0.0 | 0.00 | 0.00 | 0.00 | 64 | 1006.8 |
| 20260505112028 | 5 | 0 | 0.0 | 0.0 | 0.00 | 0.00 | 0.00 | 62 | 1006.4 |
| 20260505111545 | 5 | 0 | 0.0 | 1.6 | 0.00 | 0.00 | 0.00 | 61 | 1006.6 |
| 20260505111034 | 5 | 0 | 0.0 | 1.6 | 0.00 | 0.00 | 0.00 | 62 | 1006.9 |
| 20260505110531 | 5 | 0 | 0.0 | 1.6 | 0.00 | 0.00 | 0.00 | 61 | 1006.9 |
| 20260505102030 | 6 | 0 | 0.0 | 0.0 | 0.00 | 0.00 | 0.00 | 58 | 1006.6 |
| 20260505101553 | 6 | 0 | 0.0 | 0.0 | 0.00 | 0.00 | 0.00 | 58 | 1006.7 |
| 20260505101031 | 6 | 0 | 0.0 | 1.6 | 0.00 | 0.00 | 0.00 | 57 | 1006.7 |
| 20260505100531 | 6 | 0 | 0.0 | 1.6 | 0.00 | 0.00 | 0.00 | 56 | 1006.5 |
| 20260505100044 | 6 | 0 | 0.0 | 1.6 | 0.00 | 0.00 | 0.00 | 55 | 1006.3 |
| 20260505095530 | 6 | 0 | 0.0 | 1.6 | 0.00 | 0.00 | 0.00 | 54 | 1006.4 |
| 20260505095030 | 6 | 0 | 0.0 | 0.0 | 0.00 | 0.00 | 0.00 | 54 | 1006.2 |
| 20260505094541 | 6 | 0 | 0.0 | 1.6 | 0.00 | 0.00 | 0.00 | 53 | 1006.3 |
| 20260505094030 | 6 | 0 | 0.0 | 4.8 | 0.00 | 0.00 | 0.00 | 53 | 1006.4 |
| 20260505093530 | 6 | 0 | 0.0 | 4.8 | 0.00 | 0.00 | 0.00 | 53 | 1006.2 |
| 20260505093043 | 6 | 0 | 0.0 | 3.2 | 0.00 | 0.00 | 0.00 | 53 | 1006.4 |
| 20260505092531 | 6 | 0 | 0.0 | 3.2 | 0.00 | 0.00 | 0.00 | 53 | 1006.5 |
| 20260505092031 | 6 | 0 | 0.0 | 3.2 | 0.00 | 0.00 | 0.00 | 52 | 1006.4 |
| 20260505091542 | 7 | 0 | 0.0 | 3.2 | 0.00 | 0.00 | 0.00 | 52 | 1006.5 |
| 20260505091033 | 7 | 0 | 0.0 | 3.2 | 0.00 | 0.00 | 0.00 | 52 | 1006.4 |
| 20260505090530 | 7 | 0 | 0.0 | 3.2 | 0.00 | 0.00 | 0.00 | 51 | 1006.6 |
| 20260505090059 | 7 | 296 | 0.0 | 4.8 | 0.00 | 0.00 | 0.00 | 52 | 1006.6 |
| 20260505085530 | 7 | 0 | 0.0 | 6.4 | 0.00 | 0.00 | 0.00 | 52 | 1006.4 |
| 20260505085032 | 7 | 0 | 1.6 | 6.4 | 0.00 | 0.00 | 0.00 | 52 | 1006.3 |
| 20260505084550 | 7 | 306 | 0.0 | 6.4 | 0.00 | 0.00 | 0.00 | 52 | 1006.0 |
| 20260505084029 | 7 | 0 | 0.0 | 6.4 | 0.00 | 0.00 | 0.00 | 53 | 1005.8 |
| 20260505083529 | 7 | 304 | 0.0 | 3.2 | 0.00 | 0.00 | 0.00 | 54 | 1005.7 |
| 20260505083049 | 7 | 0 | 0.0 | 3.2 | 0.00 | 0.00 | 0.00 | 53 | 1005.7 |
| 20260505082530 | 7 | 0 | 0.0 | 3.2 | 0.00 | 0.00 | 0.00 | 53 | 1005.4 |
| 20260505082030 | 7 | 0 | 0.0 | 4.8 | 0.00 | 0.00 | 0.00 | 52 | 1005.4 |
| 20260505081545 | 7 | 0 | 0.0 | 4.8 | 0.00 | 0.00 | 0.00 | 52 | 1005.3 |
| 20260505081034 | 7 | 317 | 0.0 | 4.8 | 0.00 | 0.00 | 0.00 | 52 | 1005.2 |
| 20260505080530 | 7 | 0 | 0.0 | 6.4 | 0.00 | 0.00 | 0.00 | 51 | 1005.1 |
| 20260505080042 | 7 | 0 | 1.6 | 12.9 | 0.00 | 0.00 | 0.00 | 51 | 1005.1 |
| 20260505075532 | 7 | 331 | 0.0 | 12.9 | 0.00 | 0.00 | 0.00 | 50 | 1005.0 |
| 20260505075029 | 8 | 254 | 3.2 | 12.9 | 0.00 | 0.00 | 0.00 | 50 | 1004.7 |
| 20260505074540 | 8 | 0 | 1.6 | 11.3 | 0.00 | 0.00 | 0.00 | 50 | 1004.5 |
| 20260505074030 | 8 | 0 | 1.6 | 11.3 | 0.00 | 0.00 | 0.00 | 50 | 1004.5 |
| 20260505073530 | 8 | 360 | 3.2 | 9.7 | 0.00 | 0.00 | 0.00 | 50 | 1004.4 |
| 20260505073048 | 8 | 355 | 1.6 | 14.5 | 0.00 | 0.00 | 0.00 | 50 | 1004.4 |
| 20260505072530 | 8 | 347 | 1.6 | 14.5 | 0.00 | 0.00 | 0.00 | 50 | 1004.3 |
| 20260505072030 | 8 | 360 | 3.2 | 14.5 | 0.00 | 0.00 | 0.00 | 50 | 1004.4 |
| 20260505071546 | 8 | 346 | 3.2 | 9.7 | 0.00 | 0.00 | 0.00 | 50 | 1004.5 |
| 20260505071030 | 8 | 24 | 1.6 | 17.7 | 0.00 | 0.00 | 0.00 | 50 | 1004.5 |
| 20260505070531 | 8 | 348 | 4.8 | 17.7 | 0.00 | 0.00 | 0.00 | 49 | 1004.3 |
| 20260505070046 | 8 | 0 | 3.2 | 17.7 | 0.00 | 0.00 | 0.00 | 48 | 1004.4 |
| 20260505065531 | 8 | 305 | 0.0 | 6.4 | 0.00 | 0.00 | 0.00 | 48 | 1004.2 |
| 20260505065033 | 9 | 0 | 1.6 | 8.0 | 0.00 | 0.00 | 0.00 | 47 | 1004.1 |
| 20260505064541 | 9 | 313 | 1.6 | 12.9 | 0.00 | 0.00 | 0.00 | 47 | 1004.2 |
| 20260505064030 | 9 | 0 | 1.6 | 14.5 | 0.00 | 0.00 | 0.00 | 46 | 1004.0 |
| 20260505063530 | 9 | 296 | 1.6 | 14.5 | 0.00 | 0.00 | 0.00 | 46 | 1004.0 |
| 20260505063042 | 9 | 271 | 3.2 | 17.7 | 0.00 | 0.00 | 0.00 | 45 | 1003.9 |
| 20260505062533 | 10 | 265 | 4.8 | 17.7 | 0.00 | 0.00 | 0.00 | 45 | 1003.7 |
| 20260505062030 | 10 | 352 | 4.8 | 24.1 | 0.00 | 0.00 | 0.00 | 45 | 1003.8 |
| 20260505061548 | 10 | 257 | 6.4 | 27.4 | 0.00 | 0.00 | 0.00 | 44 | 1003.5 |
| 20260505061032 | 10 | 254 | 9.7 | 27.4 | 0.00 | 0.00 | 0.00 | 44 | 1003.5 |
| 20260505060530 | 10 | 260 | 6.4 | 24.1 | 0.00 | 0.00 | 0.00 | 45 | 1003.6 |
| 20260505060046 | 10 | 234 | 6.4 | 20.9 | 0.00 | 0.00 | 0.00 | 45 | 1003.6 |
| 20260505055533 | 10 | 272 | 4.8 | 22.5 | 0.00 | 0.00 | 0.00 | 46 | 1003.5 |
| 20260505055031 | 10 | 9 | 4.8 | 22.5 | 0.00 | 0.00 | 0.00 | 47 | 1003.5 |
| 20260505054545 | 10 | 312 | 3.2 | 17.7 | 0.00 | 0.00 | 0.00 | 48 | 1003.5 |
| 20260505054033 | 11 | 360 | 3.2 | 19.3 | 0.00 | 0.00 | 0.00 | 48 | 1003.4 |
| 20260505053531 | 11 | 268 | 4.8 | 19.3 | 0.00 | 0.00 | 0.00 | 48 | 1003.3 |
| 20260505053046 | 11 | 41 | 4.8 | 19.3 | 0.00 | 0.00 | 0.00 | 47 | 1003.3 |
| 20260505052531 | 11 | 5 | 3.2 | 14.5 | 0.00 | 0.00 | 0.00 | 48 | 1003.3 |
| 20260505052030 | 11 | 340 | 3.2 | 16.1 | 0.00 | 0.00 | 0.00 | 48 | 1003.2 |
| 20260505051540 | 11 | 348 | 1.6 | 16.1 | 0.00 | 0.00 | 0.00 | 48 | 1003.1 |
| 20260505051030 | 11 | 24 | 1.6 | 19.3 | 0.00 | 0.00 | 0.00 | 47 | 1003.0 |
| 20260505050533 | 12 | 5 | 3.2 | 20.9 | 0.00 | 0.00 | 0.00 | 46 | 1003.0 |
| 20260505041541 | 13 | 281 | 3.2 | 14.5 | 0.00 | 0.00 | 0.00 | 42 | 1001.8 |
| 20260505041029 | 13 | 301 | 3.2 | 16.1 | 0.00 | 0.00 | 0.00 | 42 | 1001.7 |
| 20260505040531 | 13 | 26 | 8.0 | 16.1 | 0.00 | 0.00 | 0.00 | 41 | 1002.0 |
| 20260505040042 | 13 | 248 | 4.8 | 16.1 | 0.00 | 0.00 | 0.00 | 41 | 1002.0 |
| 20260505035530 | 13 | 286 | 4.8 | 16.1 | 0.00 | 0.00 | 0.00 | 41 | 1001.9 |
| 20260505035030 | 13 | 273 | 4.8 | 16.1 | 0.00 | 0.00 | 0.00 | 40 | 1001.8 |
| 20260505034547 | 13 | 281 | 6.4 | 16.1 | 0.00 | 0.00 | 0.00 | 40 | 1001.7 |
| 20260505034030 | 13 | 267 | 4.8 | 12.9 | 0.00 | 0.00 | 0.00 | 40 | 1001.8 |
| 20260505033530 | 13 | 295 | 3.2 | 19.3 | 0.00 | 0.00 | 0.00 | 40 | 1001.6 |
| 20260505033106 | 13 | 284 | 3.2 | 19.3 | 0.00 | 0.00 | 0.00 | 38 | 1001.7 |
| 20260505032529 | 14 | 264 | 9.7 | 19.3 | 0.00 | 0.00 | 0.00 | 38 | 1001.8 |
| 20260505032029 | 14 | 278 | 4.8 | 17.7 | 0.00 | 0.00 | 0.00 | 38 | 1001.6 |
| 20260505031543 | 14 | 290 | 6.4 | 17.7 | 0.00 | 0.00 | 0.00 | 37 | 1001.5 |
| 20260505031029 | 14 | 240 | 4.8 | 16.1 | 0.00 | 0.00 | 0.00 | 38 | 1001.4 |
| 20260505030530 | 14 | 278 | 3.2 | 12.9 | 0.00 | 0.00 | 0.00 | 38 | 1001.2 |
| 20260505030048 | 14 | 263 | 3.2 | 12.9 | 0.00 | 0.00 | 0.00 | 38 | 1001.2 |
| 20260505025531 | 14 | 264 | 1.6 | 6.4 | 0.00 | 0.00 | 0.00 | 38 | 1001.2 |
| 20260505025030 | 15 | 274 | 0.0 | 6.4 | 0.00 | 0.00 | 0.00 | 38 | 1001.1 |
| 20260505024547 | 15 | 267 | 1.6 | 11.3 | 0.00 | 0.00 | 0.00 | 37 | 1000.9 |
| 20260505024030 | 15 | 273 | 1.6 | 11.3 | 0.00 | 0.00 | 0.00 | 37 | 1000.9 |
| 20260505023530 | 15 | 274 | 4.8 | 11.3 | 0.00 | 0.00 | 0.00 | 36 | 1000.7 |
| 20260505023058 | 15 | 275 | 3.2 | 11.3 | 0.00 | 0.00 | 0.00 | 36 | 1000.6 |
| 20260505022530 | 15 | 261 | 1.6 | 12.9 | 0.00 | 0.00 | 0.00 | 36 | 1000.4 |
| 20260505022029 | 15 | 272 | 4.8 | 12.9 | 0.00 | 0.00 | 0.00 | 36 | 1000.3 |
| 20260505021546 | 15 | 286 | 3.2 | 11.3 | 0.00 | 0.00 | 0.00 | 36 | 999.8 |
| 20260505021033 | 16 | 288 | 3.2 | 14.5 | 0.00 | 0.00 | 0.00 | 35 | 999.6 |
| 20260505020530 | 16 | 0 | 3.2 | 16.1 | 0.00 | 0.00 | 0.00 | 35 | 999.5 |
| 20260505020050 | 16 | 263 | 6.4 | 16.1 | 0.00 | 0.00 | 0.00 | 35 | 999.6 |
| 20260505015530 | 16 | 262 | 8.0 | 17.7 | 0.00 | 0.00 | 0.00 | 35 | 999.5 |
| 20260505015030 | 16 | 257 | 4.8 | 17.7 | 0.00 | 0.00 | 0.00 | 35 | 999.3 |
| 20260505014551 | 16 | 272 | 9.7 | 20.9 | 0.00 | 0.00 | 0.00 | 34 | 999.1 |
| 20260505014033 | 16 | 273 | 9.7 | 20.9 | 0.00 | 0.00 | 0.00 | 34 | 999.1 |
| 20260505013529 | 16 | 294 | 8.0 | 20.9 | 0.00 | 0.00 | 0.00 | 34 | 998.9 |
| 20260505013051 | 17 | 255 | 9.7 | 20.9 | 0.00 | 0.00 | 0.00 | 34 | 999.0 |
| 20260505012532 | 17 | 267 | 8.0 | 19.3 | 0.00 | 0.00 | 0.00 | 34 | 999.0 |
| 20260505012030 | 17 | 265 | 8.0 | 20.9 | 0.00 | 0.00 | 0.00 | 34 | 998.8 |
| 20260505011555 | 17 | 258 | 8.0 | 20.9 | 0.00 | 0.00 | 0.00 | 33 | 999.0 |
| 20260505011030 | 17 | 233 | 8.0 | 27.4 | 0.00 | 0.00 | 0.00 | 33 | 998.8 |
| 20260505010530 | 17 | 281 | 9.7 | 27.4 | 0.00 | 0.00 | 0.00 | 33 | 998.8 |
| 20260505010049 | 18 | 265 | 12.9 | 27.4 | 0.00 | 0.00 | 0.00 | 32 | 998.4 |
| 20260505005530 | 18 | 269 | 8.0 | 17.7 | 0.00 | 0.00 | 0.00 | 34 | 998.3 |
| 20260505005030 | 18 | 293 | 9.7 | 24.1 | 0.00 | 0.00 | 0.00 | 33 | 998.2 |
| 20260505004549 | 18 | 307 | 11.3 | 24.1 | 0.00 | 0.00 | 0.00 | 33 | 998.0 |
| 20260505004030 | 19 | 250 | 6.4 | 19.3 | 0.00 | 0.00 | 0.00 | 35 | 997.5 |
| 20260505003529 | 19 | 259 | 8.0 | 19.3 | 0.00 | 0.00 | 0.00 | 34 | 997.6 |
| 20260505003042 | 20 | 5 | 8.0 | 19.3 | 0.00 | 0.00 | 0.00 | 35 | 997.4 |
| 20260505002530 | 20 | 296 | 6.4 | 20.9 | 0.00 | 0.00 | 0.00 | 34 | 997.2 |
| 20260505002031 | 20 | 15 | 9.7 | 22.5 | 0.00 | 0.00 | 0.00 | 34 | 997.3 |
| 20260505001541 | 21 | 285 | 6.4 | 22.5 | 0.00 | 0.00 | 0.00 | 34 | 997.2 |
| 20260505001034 | 21 | 284 | 6.4 | 19.3 | 0.00 | 0.00 | 0.00 | 35 | 997.1 |
| 20260505000530 | 21 | 276 | 4.8 | 20.9 | 0.00 | 0.00 | 0.00 | 35 | 997.0 |
| 20260505000045 | 22 | 278 | 9.7 | 25.7 | 0.00 | 0.00 | 0.00 | 35 | 996.8 |
| 20260504235530 | 22 | 238 | 12.9 | 25.7 | 0.00 | 0.00 | 0.00 | 34 | 996.9 |
| 20260504235030 | 22 | 244 | 12.9 | 25.7 | 0.00 | 0.00 | 0.00 | 33 | 996.8 |
| 20260504234612 | 22 | 300 | 11.3 | 24.1 | 0.00 | 0.00 | 0.00 | 34 | 996.8 |
| 20260504234032 | 22 | 284 | 6.4 | 20.9 | 0.00 | 0.00 | 0.00 | 35 | 996.6 |
| 20260504233530 | 22 | 254 | 3.2 | 20.9 | 0.00 | 0.00 | 0.00 | 37 | 996.6 |
| 20260504233050 | 22 | 315 | 8.0 | 22.5 | 0.00 | 0.00 | 0.00 | 36 | 996.5 |
| 20260504232529 | 23 | 277 | 8.0 | 22.5 | 0.00 | 0.00 | 0.00 | 36 | 996.4 |
| 20260504232029 | 23 | 258 | 8.0 | 22.5 | 0.00 | 0.00 | 0.00 | 35 | 996.3 |
| 20260504231552 | 23 | 288 | 4.8 | 22.5 | 0.00 | 0.00 | 0.00 | 36 | 996.3 |
| 20260504231032 | 24 | 277 | 8.0 | 22.5 | 0.00 | 0.00 | 0.00 | 34 | 996.2 |
| 20260504230531 | 24 | 287 | 9.7 | 30.6 | 0.00 | 0.00 | 0.00 | 33 | 996.0 |
| 20260504230043 | 24 | 284 | 16.1 | 30.6 | 0.00 | 0.00 | 0.00 | 33 | 996.1 |
| 20260504225532 | 24 | 254 | 11.3 | 29.0 | 0.00 | 0.00 | 0.00 | 34 | 996.0 |
| 20260504225034 | 24 | 263 | 14.5 | 29.0 | 0.00 | 0.00 | 0.00 | 34 | 996.0 |
| 20260504224541 | 25 | 271 | 9.7 | 20.9 | 0.00 | 0.00 | 0.00 | 34 | 995.9 |
| 20260504224030 | 25 | 269 | 11.3 | 20.9 | 0.00 | 0.00 | 0.00 | 34 | 996.0 |
| 20260504223532 | 25 | 239 | 4.8 | 19.3 | 0.00 | 0.00 | 0.00 | 34 | 995.8 |
| 20260504223041 | 24 | 262 | 8.0 | 19.3 | 0.00 | 0.00 | 0.00 | 33 | 995.8 |
| 20260504222530 | 24 | 237 | 8.0 | 19.3 | 0.00 | 0.00 | 0.00 | 32 | 995.7 |
| 20260504222030 | 24 | 236 | 6.4 | 19.3 | 0.00 | 0.00 | 0.00 | 32 | 995.8 |
| 20260504221554 | 24 | 269 | 8.0 | 20.9 | 0.00 | 0.00 | 0.00 | 31 | 995.7 |
| 20260504221032 | 24 | 125 | 9.7 | 20.9 | 0.00 | 0.00 | 0.00 | 30 | 995.7 |
| 20260504220530 | 25 | 246 | 9.7 | 27.4 | 0.00 | 0.00 | 0.00 | 31 | 995.6 |
| 20260504220047 | 25 | 241 | 8.0 | 27.4 | 0.00 | 0.00 | 0.00 | 31 | 995.6 |
| 20260504215529 | 25 | 200 | 11.3 | 24.1 | 0.00 | 0.00 | 0.00 | 31 | 995.8 |
| 20260504215030 | 25 | 205 | 8.0 | 22.5 | 0.00 | 0.00 | 0.00 | 30 | 995.7 |
| 20260504214548 | 25 | 269 | 11.3 | 22.5 | 0.00 | 0.00 | 0.00 | 31 | 995.8 |
| 20260504214032 | 25 | 241 | 8.0 | 25.7 | 0.00 | 0.00 | 0.00 | 31 | 995.8 |
| 20260504213531 | 24 | 262 | 8.0 | 25.7 | 0.00 | 0.00 | 0.00 | 31 | 995.7 |
| 20260504213048 | 25 | 248 | 9.7 | 25.7 | 0.00 | 0.00 | 0.00 | 32 | 995.8 |
| 20260504212531 | 25 | 240 | 8.0 | 27.4 | 0.00 | 0.00 | 0.00 | 33 | 995.9 |
| 20260504212034 | 25 | 259 | 11.3 | 27.4 | 0.00 | 0.00 | 0.00 | 32 | 995.8 |
| 20260504211540 | 25 | 221 | 9.7 | 32.2 | 0.00 | 0.00 | 0.00 | 30 | 995.9 |
| 20260504211030 | 25 | 223 | 14.5 | 32.2 | 0.00 | 0.00 | 0.00 | 30 | 995.8 |
| 20260504210530 | 24 | 209 | 11.3 | 24.1 | 0.00 | 0.00 | 0.00 | 31 | 995.9 |
| 20260504210055 | 25 | 250 | 8.0 | 27.4 | 0.00 | 0.00 | 0.00 | 31 | 996.0 |
| 20260504205531 | 25 | 277 | 12.9 | 27.4 | 0.00 | 0.00 | 0.00 | 30 | 996.0 |
| 20260504205029 | 25 | 193 | 8.0 | 17.7 | 0.00 | 0.00 | 0.00 | 32 | 996.0 |
| 20260504204619 | 24 | 217 | 8.0 | 17.7 | 0.00 | 0.00 | 0.00 | 34 | 996.1 |
| 20260504204030 | 25 | 243 | 6.4 | 19.3 | 0.00 | 0.00 | 0.00 | 32 | 996.1 |
| 20260504203535 | 25 | 265 | 11.3 | 20.9 | 0.00 | 0.00 | 0.00 | 31 | 996.2 |
| 20260504203044 | 25 | 255 | 11.3 | 27.4 | 0.00 | 0.00 | 0.00 | 31 | 996.3 |
| 20260504202531 | 25 | 203 | 12.9 | 33.8 | 0.00 | 0.00 | 0.00 | 31 | 996.3 |
| 20260504202030 | 25 | 209 | 12.9 | 33.8 | 0.00 | 0.00 | 0.00 | 31 | 996.3 |
| 20260504201542 | 25 | 260 | 9.7 | 25.7 | 0.00 | 0.00 | 0.00 | 32 | 996.4 |
| 20260504201030 | 25 | 221 | 11.3 | 33.8 | 0.00 | 0.00 | 0.00 | 32 | 996.5 |
| 20260504200530 | 25 | 239 | 9.7 | 33.8 | 0.00 | 0.00 | 0.00 | 33 | 996.6 |
| 20260504200054 | 25 | 238 | 12.9 | 33.8 | 0.00 | 0.00 | 0.00 | 32 | 996.8 |
| 20260504195530 | 25 | 236 | 9.7 | 27.4 | 0.00 | 0.00 | 0.00 | 33 | 996.9 |
| 20260504195031 | 25 | 207 | 12.9 | 25.7 | 0.00 | 0.00 | 0.00 | 33 | 996.8 |
| 20260504194551 | 25 | 268 | 9.7 | 24.1 | 0.00 | 0.00 | 0.00 | 32 | 996.9 |
| 20260504194031 | 25 | 194 | 11.3 | 24.1 | 0.00 | 0.00 | 0.00 | 32 | 996.8 |
| 20260504193530 | 25 | 239 | 8.0 | 24.1 | 0.00 | 0.00 | 0.00 | 34 | 997.0 |
| 20260504193046 | 24 | 207 | 9.7 | 24.1 | 0.00 | 0.00 | 0.00 | 33 | 997.0 |
| 20260504192531 | 25 | 234 | 8.0 | 32.2 | 0.00 | 0.00 | 0.00 | 32 | 997.1 |
| 20260504192031 | 24 | 234 | 11.3 | 32.2 | 0.00 | 0.00 | 0.00 | 33 | 997.0 |
| 20260504191544 | 24 | 207 | 9.7 | 30.6 | 0.00 | 0.00 | 0.00 | 32 | 997.2 |
| 20260504191033 | 24 | 209 | 12.9 | 32.2 | 0.00 | 0.00 | 0.00 | 33 | 997.2 |
| 20260504190531 | 24 | 199 | 14.5 | 32.2 | 0.00 | 0.00 | 0.00 | 32 | 997.3 |
| 20260504190050 | 24 | 246 | 9.7 | 32.2 | 0.00 | 0.00 | 0.00 | 33 | 997.5 |
| 20260504185530 | 24 | 249 | 14.5 | 32.2 | 0.00 | 0.00 | 0.00 | 31 | 997.5 |
| 20260504185030 | 24 | 208 | 11.3 | 33.8 | 0.00 | 0.00 | 0.00 | 33 | 997.4 |
| 20260504184558 | 24 | 221 | 16.1 | 35.4 | 0.00 | 0.00 | 0.00 | 32 | 997.5 |
| 20260504184030 | 24 | 223 | 12.9 | 38.6 | 0.00 | 0.00 | 0.00 | 33 | 997.4 |
| 20260504183530 | 24 | 223 | 9.7 | 43.5 | 0.00 | 0.00 | 0.00 | 34 | 997.5 |
| 20260504183056 | 23 | 267 | 12.9 | 43.5 | 0.00 | 0.00 | 0.00 | 32 | 997.4 |
| 20260504182532 | 23 | 256 | 9.7 | 32.2 | 0.00 | 0.00 | 0.00 | 32 | 997.5 |
| 20260504182034 | 24 | 265 | 12.9 | 32.2 | 0.00 | 0.00 | 0.00 | 31 | 997.6 |
| 20260504181545 | 23 | 191 | 8.0 | 38.6 | 0.00 | 0.00 | 0.00 | 33 | 997.4 |
| 20260504181030 | 23 | 205 | 11.3 | 38.6 | 0.00 | 0.00 | 0.00 | 32 | 997.5 |
| 20260504180530 | 23 | 198 | 11.3 | 32.2 | 0.00 | 0.00 | 0.00 | 34 | 997.5 |
| 20260504180045 | 23 | 204 | 11.3 | 24.1 | 0.00 | 0.00 | 0.00 | 32 | 997.5 |
| 20260504175531 | 23 | 263 | 8.0 | 30.6 | 0.00 | 0.00 | 0.00 | 33 | 997.5 |
| 20260504175030 | 23 | 268 | 11.3 | 30.6 | 0.00 | 0.00 | 0.00 | 32 | 997.5 |
| 20260504174542 | 23 | 265 | 12.9 | 33.8 | 0.00 | 0.00 | 0.00 | 32 | 997.5 |
| 20260504174031 | 23 | 148 | 12.9 | 33.8 | 0.00 | 0.00 | 0.00 | 32 | 997.5 |
| 20260504173533 | 23 | 227 | 12.9 | 32.2 | 0.00 | 0.00 | 0.00 | 32 | 997.5 |
| 20260504173041 | 23 | 153 | 12.9 | 32.2 | 0.00 | 0.00 | 0.00 | 33 | 997.4 |
| 20260504172530 | 23 | 225 | 12.9 | 27.4 | 0.00 | 0.00 | 0.00 | 32 | 997.6 |
| 20260504172030 | 23 | 196 | 12.9 | 38.6 | 0.00 | 0.00 | 0.00 | 31 | 997.6 |
| 20260504171546 | 23 | 227 | 16.1 | 38.6 | 0.00 | 0.00 | 0.00 | 30 | 997.8 |
| 20260504171031 | 23 | 253 | 14.5 | 37.0 | 0.00 | 0.00 | 0.00 | 30 | 998.1 |
| 20260504170531 | 23 | 152 | 11.3 | 32.2 | 0.00 | 0.00 | 0.00 | 33 | 997.9 |
| 20260504151034 | 21 | 200 | 8.0 | 25.7 | 0.00 | 0.00 | 0.00 | 36 | 999.4 |
| 20260504150530 | 20 | 155 | 9.7 | 20.9 | 0.00 | 0.00 | 0.00 | 36 | 999.5 |